Regional Weather Roundup
Issued by NWS Goodland, KS

Home | Current Version | Previous Version | Text Only | Print | Product List | Glossary On
Versions: 1 2 3 4 5 6 7 8 9 10 11 12 13 14 15 16 17 18 19 20 21 22 23 24 25 26 27 28 29 30 31 32 33 34 35 36 37 38 39 40 41 42 43 44 45 46 47 48 49 50
277
ASUS43 KGLD 162008
RWRGLD

GOODLAND FORECAST AREA HOURLY WEATHER ROUNDUP
NATIONAL WEATHER SERVICE GOODLAND KS
100 PM MST MON JAN 16 2017

...OFFICIAL OBSERVATIONS...

CITY           SKY/WX    TMP DP  RH WIND       PRES   REMARKS
GOODLAND KS    CLOUDY    33  32  96 N17       29.93S FOG
HILL CITY KS   MIX PCPN  34  33  96 N10       29.90F FOG
IMPERIAL NEB   CLOUDY    35  28  75 N20       29.97S
MCCOOK NEB     MIX PCPN  35  34  96 N12       29.94S FOG
AKRON CO       LGT SNOW  31  25  78 N17       30.02F WCI  19
BURLINGTON CO  LGT SNOW  33  32  96 N16G25    29.95S FOG
LIMON CO       LGT SNOW  29  27  92 N23G32    30.00S FOG     WCI  15
$$

...UNOFFICIAL OBSERVATIONS...

CITY           SKY/WX    TMP DP  RH WIND       PRES   REMARKS
LENORA KS        N/A     33  32  96 CALM        N/A
NORTON KS      CLOUDY    34  28  80 NW5       29.90S FOG
SHARON SPRINGS   N/A     34  33  95 CALM        N/A
TRENTON NEB      N/A     32  32 100 CALM        N/A
KIT CARSON CO    N/A     32  29  90 CALM        N/A
YUMA CO        LGT SNOW  32  28  86 NW18      30.01S
$$




USA.gov is the U.S. government's official web portal to all federal, state and local government web resources and services.